Location: Corona
(40.7470°N, 73.8601°W)
Time: 16:06:05
(UTC+00:00)

FREGAT/IRIS - Pass Details

Date: 22 September 2019
Orbit: 347 x 350 km, 97.0° (Epoch: 14 October)

Event Time Altitude Azimuth Distance (km) Brightness Sun altitude
Exits shadow 23:32:38 12° 105° (ESE) 1,230 4.4 -8.3°
Maximum altitude 23:34:06 16° 70° (ENE) 1,035 4.2 -8.6°
Drops below altitude 10° 23:35:56 10° 30° (NNE) 1,331 5.1 -8.9°
Sets 23:38:21 0° 7° (N) 2,182 6.4 -9.4°
